Location: Arleux
(50.3632°N, 2.8721°E)
Time: 17:08:47
(UTC+00:00)

CZ-4 R/B - Pass Details

Date: 15 December 2019
Orbit: 533 x 598 km, 97.7° (Epoch: 24 January)

Event Time Altitude Azimuth Distance (km) Brightness Sun altitude
Rises 06:17:28 0° 24° (NNE) 2,711 4.9 -12.5°
Reaches altitude 10° 06:19:54 10° 39° (NE) 1,822 4.2 -12.2°
Maximum altitude 06:23:08 24° 94° (E) 1,161 3.9 -11.7°
Drops below altitude 10° 06:26:24 10° 150° (SSE) 1,836 4.8 -11.2°
Sets 06:28:51 0° 164° (SSE) 2,738 5.5 -10.9°
